Theta_e
336 336 335 335 335 336 335 336 336 336 335 336 336 336 335 331 329 330 331 333 334 335 336 336 335 335 334 334 334 334 334 334 334 333 333 333 333 333 332 332 333 333
335 334 334 334 334 334 335 335 335 335 335 336 336 335 334 333 332 331 329 330 332 334 336 336 336 335 334 334 333 334 334 333 333 333 333 333 333 333 332 332 333 333
334 333 333 333 333 333 334 334 334 335 335 335 335 334 333 333 334 332 330 330 331 332 334 335 336 335 335 334 334 334 334 333 333 332 332 332 332 333 333 333 334 333
333 333 333 333 333 333 333 333 333 333 334 334 333 333 332 332 333 331 329 329 330 331 332 333 334 335 334 334 334 334 333 333 333 332 332 332 332 333 334 333 333 333
332 333 333 333 333 333 332 333 333 333 333 332 331 332 331 331 331 329 328 329 330 331 331 332 334 334 334 334 334 334 333 333 333 333 332 332 332 333 333 333 333 332
331 332 332 332 332 332 332 332 333 333 332 331 330 330 330 331 330 329 329 330 330 330 331 331 333 334 334 335 334 334 334 333 333 333 333 332 332 332 332 332 332 333
329 330 330 330 331 331 332 332 332 332 331 331 330 329 330 330 329 328 328 328 329 330 330 330 332 333 332 333 333 334 334 333 332 332 332 333 333 332 332 332 332 332
329 329 329 329 330 330 331 331 331 331 331 331 329 329 329 330 329 329 328 328 329 330 330 330 331 332 330 330 332 333 333 332 332 330 330 332 333 332 332 332 331 331
327 327 327 328 328 329 330 330 330 330 330 330 329 329 329 330 330 330 329 329 329 330 330 330 331 332 332 332 332 333 332 331 331 330 329 331 333 332 332 332 331 331
325 325 326 327 327 328 329 329 329 330 330 330 329 329 329 330 330 330 330 330 330 331 330 330 331 331 332 332 331 332 330 329 330 331 331 332 332 332 333 332 331 332
324 325 325 326 327 328 329 329 329 329 330 329 329 330 329 330 330 330 330 330 331 331 331 331 331 330 331 331 330 330 330 329 331 332 332 333 332 332 332 332 331 331
324 325 326 326 327 328 328 329 329 329 329 329 329 330 329 329 329 330 330 330 331 331 331 331 331 331 331 331 331 331 331 331 332 332 332 332 331 331 332 332 331 330
323 325 326 326 327 328 328 329 328 328 329 328 329 330 330 329 329 329 330 330 330 331 330 331 331 331 331 331 331 331 331 331 332 331 331 331 330 331 331 332 331 330
323 324 325 325 326 328 327 328 327 328 328 328 328 329 329 329 329 330 329 330 330 330 330 331 331 330 330 330 331 330 331 332 331 330 330 330 331 331 331 331 330 330
323 324 324 324 325 325 325 326 326 326 326 326 327 329 328 328 328 329 330 330 330 330 330 330 331 330 330 330 331 330 330 330 330 329 329 330 332 332 331 330 329 329
322 323 323 323 323 323 324 324 323 324 324 324 325 327 327 327 327 328 329 330 330 330 330 330 330 330 329 330 331 331 330 329 329 329 329 330 331 331 329 328 328 329
321 322 322 321 322 322 322 321 321 320 321 321 322 324 325 325 326 326 327 327 327 328 328 329 329 330 330 330 331 331 331 330 329 329 329 329 330 329 328 327 327 328
320 320 320 320 321 321 320 319 318 318 318 318 319 321 322 322 323 324 325 325 325 325 324 325 327 328 329 330 330 330 329 329 328 328 327 327 328 328 328 328 327 326
319 319 319 319 319 319 319 318 317 317 317 317 317 318 319 320 320 320 321 322 323 321 320 322 324 326 327 328 328 327 327 327 327 327 326 326 326 325 326 328 327 326
317 318 318 318 318 318 317 317 317 317 316 315 315 316 316 317 317 317 318 319 319 318 318 319 321 323 325 327 327 327 326 326 326 326 326 326 325 325 325 327 327 326
316 317 317 317 317 316 316 316 316 316 315 314 313 313 314 314 314 315 314 315 316 317 318 319 320 321 324 326 327 327 326 325 325 325 325 325 325 325 325 326 326 326
315 315 315 315 315 316 315 315 315 315 315 314 312 312 312 311 311 311 312 312 314 315 317 319 320 321 323 325 326 326 325 324 324 324 323 323 322 322 324 325 325 325
313 314 314 313 314 314 314 314 314 314 314 313 312 312 311 310 309 309 309 310 312 313 315 317 319 321 322 324 324 323 323 323 324 322 320 318 318 318 320 322 323 323
312 312 313 312 312 313 313 312 313 313 313 313 312 311 311 310 309 308 307 308 310 311 313 316 318 320 321 322 322 322 321 322 323 321 316 314 315 316 317 318 319 320
311 310 311 311 311 311 311 311 311 311 312 312 312 311 311 309 308 308 307 306 307 310 312 314 317 319 320 320 321 321 321 321 321 318 314 312 313 315 315 315 316 317
309 309 308 309 309 309 309 309 310 310 310 310 311 311 310 309 308 308 306 305 305 308 310 312 314 316 318 319 320 319 319 319 319 317 314 312 311 311 310 310 311 313
Wind_Speed
10 10 11 11 12 13 14 16 17 18 19 18 19 19 17 17 18 17 16 17 18 20 20 20 20 20 21 22 21 21 22 22 23 22 21 20 20 19 17 18 18 17
10 10 11 12 14 14 14 15 16 18 19 20 20 20 20 20 21 19 16 16 19 20 19 19 19 19 21 21 21 21 21 21 22 24 23 22 22 20 20 20 19 18
10 11 12 13 14 15 16 17 17 17 18 19 20 22 23 23 22 20 17 17 19 20 20 21 21 20 20 21 21 22 22 20 20 22 22 22 21 20 21 20 18 18
11 12 12 13 14 15 16 17 17 17 17 18 21 23 24 24 22 20 17 16 18 19 21 23 22 21 20 20 21 22 23 21 19 21 21 20 20 20 19 18 18 18
13 13 14 15 15 15 16 16 16 15 15 17 20 22 22 22 22 19 17 17 18 20 23 23 21 21 20 19 20 20 22 20 18 19 19 18 19 19 18 18 19 19
14 14 15 16 16 16 16 16 15 15 15 17 19 20 20 20 20 18 16 16 18 21 23 23 21 20 19 19 19 19 21 20 18 17 16 16 17 18 18 18 19 20
15 15 16 16 17 18 18 17 16 16 16 18 20 21 20 19 18 17 15 15 17 20 23 22 20 19 19 19 18 18 20 20 18 17 16 16 17 17 17 17 20 21
15 16 16 16 17 17 18 17 17 16 16 18 20 21 19 16 15 15 14 14 16 17 20 21 20 18 17 17 16 16 18 17 17 18 18 18 18 18 17 17 19 20
16 16 17 18 18 17 18 18 18 17 17 18 19 18 16 12 11 12 12 11 10 11 14 17 19 16 13 13 14 13 14 15 16 18 19 19 19 19 18 18 20 19
16 16 17 18 18 18 18 18 18 17 17 16 16 15 13 11 9 10 10 7 6 7 10 13 16 17 14 11 11 10 11 12 14 17 18 18 19 19 18 18 20 20
16 16 17 18 18 18 17 17 17 16 16 15 14 14 13 12 11 10 9 6 4 6 8 11 13 14 14 10 8 9 11 12 14 16 18 16 16 18 17 16 17 18
16 17 18 18 18 18 17 17 16 16 17 15 13 14 13 12 11 10 7 3 1 3 7 11 10 10 13 12 10 11 14 16 15 15 16 16 15 15 15 14 14 13
17 18 18 18 19 19 17 17 17 16 17 16 14 12 11 11 10 7 5 4 2 3 6 10 10 9 13 14 12 12 15 17 16 15 14 13 13 13 13 13 13 11
18 18 18 19 19 19 18 19 19 18 18 18 15 12 12 12 11 7 6 5 3 3 4 8 10 10 11 11 10 11 15 16 15 14 13 11 11 13 12 12 13 12
18 18 18 19 20 21 21 21 21 20 20 20 18 16 15 14 12 9 7 5 4 3 3 7 9 9 9 9 8 9 12 14 13 13 13 10 9 11 11 11 13 12
18 18 18 19 20 21 21 21 21 20 21 21 20 19 18 16 12 9 7 5 4 2 2 5 7 7 7 8 9 7 8 11 11 12 12 9 8 9 9 10 13 11
18 18 18 19 19 19 20 20 20 21 21 21 21 20 20 18 14 11 9 7 6 6 5 2 2 4 4 6 9 9 7 8 9 9 9 9 9 10 10 11 13 11
18 18 18 18 18 18 19 20 20 21 21 22 22 21 21 20 20 18 15 11 9 10 10 7 4 3 3 4 6 8 8 8 8 9 10 11 11 10 11 12 13 13
17 17 17 18 18 18 19 20 20 20 21 22 23 23 22 21 21 21 18 14 12 13 15 12 7 5 6 6 6 7 7 6 5 6 8 8 6 7 9 10 12 13
17 17 17 17 18 18 19 19 20 20 21 21 23 24 24 23 23 22 20 17 15 16 18 17 13 9 7 7 7 7 6 6 3 2 3 4 4 5 7 8 10 10
18 17 18 18 18 18 18 18 19 20 20 21 23 25 25 24 23 22 21 19 19 19 20 21 20 15 10 7 7 7 8 9 8 7 7 8 9 9 8 7 7 6
18 17 18 18 18 17 18 18 19 19 19 20 21 23 24 25 25 25 23 22 22 23 24 25 24 20 14 9 8 10 12 15 15 14 14 15 15 14 12 9 6 6
18 17 17 17 17 17 18 19 19 19 19 19 19 21 23 24 26 28 29 28 27 27 28 28 27 26 21 15 13 14 15 19 24 23 22 23 23 21 19 17 14 10
18 17 17 17 17 18 18 19 20 20 19 19 19 21 22 23 24 26 30 34 33 32 31 30 30 30 28 22 19 18 18 22 28 28 26 27 29 29 27 25 23 18
18 18 17 17 17 18 18 19 20 20 20 19 19 20 20 21 23 26 31 36 37 36 35 33 31 30 28 24 22 21 21 22 26 28 28 29 31 31 30 29 29 26
19 19 19 18 17 18 19 20 20 21 21 21 20 19 20 20 22 26 30 35 39 41 39 37 34 31 28 24 22 21 21 21 24 27 29 31 32 32 31 32 32 32
Wind_Direction
320 323 319 314 306 298 294 291 292 291 287 283 281 283 287 281 270 267 267 261 254 250 246 243 241 234 225 220 215 212 209 205 203 201 196 192 190 190 193 194 192 191
322 322 318 316 311 306 302 298 296 294 292 289 287 288 289 284 275 268 271 272 262 255 250 244 240 235 228 222 215 210 208 207 206 202 196 192 191 192 194 195 195 196
321 318 314 309 305 303 304 303 299 296 293 291 290 289 286 285 282 271 263 262 262 261 256 249 243 236 230 222 213 210 207 206 203 199 195 192 191 191 190 191 196 202
327 321 314 308 304 305 307 306 302 299 298 295 294 293 290 288 286 278 269 262 261 260 254 251 245 235 229 218 210 207 204 204 201 195 192 189 191 193 192 195 202 209
331 325 321 320 318 318 318 315 309 307 306 302 301 299 297 296 292 284 281 275 268 260 252 249 244 235 227 214 206 201 197 200 202 197 193 189 191 195 198 203 208 211
332 329 326 328 328 329 329 324 318 317 314 312 314 309 301 299 296 286 285 288 280 269 261 256 249 240 227 211 205 201 194 195 198 197 194 189 191 195 200 207 210 210
336 334 331 330 330 330 329 325 323 322 319 320 322 320 311 302 299 296 297 302 295 281 273 267 257 247 234 220 210 202 196 196 194 191 189 187 189 194 198 206 209 209
338 337 337 337 334 330 327 326 326 324 322 323 324 324 319 309 307 313 312 314 313 296 281 273 264 251 237 225 215 205 198 194 191 192 191 189 188 190 196 202 205 206
342 342 343 341 338 334 331 330 329 327 325 326 326 325 323 318 320 328 324 322 320 296 274 267 260 248 234 222 214 207 200 194 194 195 192 188 186 188 195 200 200 201
349 348 345 341 339 337 334 333 333 333 331 330 328 325 323 322 324 333 338 336 323 290 265 256 250 240 231 224 213 206 206 203 200 196 190 187 187 186 192 200 202 203
353 349 344 341 339 336 333 334 337 336 332 328 326 325 323 322 323 330 343 351 337 299 262 248 244 232 222 217 202 200 210 208 203 196 188 187 191 188 189 199 206 207
353 348 348 347 344 342 339 338 341 342 340 337 331 327 325 327 333 336 337 337 314 282 245 234 235 222 211 205 189 193 210 210 206 205 200 201 206 199 196 200 202 199
354 350 352 351 349 352 351 349 352 352 352 349 339 333 334 340 349 339 318 308 276 270 244 228 223 213 214 213 199 201 217 218 212 211 211 214 213 202 202 207 201 194
356 357 359 358 358 2 4 3 4 2 360 357 350 347 347 349 356 348 331 334 317 292 253 224 214 208 215 220 216 215 222 222 218 212 207 209 209 199 198 203 199 200
359 3 6 6 6 9 10 9 8 4 4 6 5 3 357 352 354 352 349 350 328 303 260 225 213 212 216 214 215 223 222 215 213 212 204 200 206 198 188 195 201 203
5 8 12 13 12 12 15 15 12 8 8 9 9 8 5 1 356 352 355 356 345 339 292 244 224 224 224 204 190 194 208 205 201 208 207 198 201 195 177 190 204 201
9 11 15 17 15 17 20 20 18 16 14 12 10 9 11 15 20 22 22 13 14 33 36 32 194 209 212 187 172 165 175 192 191 199 208 204 199 188 168 174 186 187
12 13 17 20 20 23 25 23 22 21 19 17 15 14 17 25 33 39 38 32 33 45 50 58 96 132 133 145 152 147 153 174 187 197 203 204 198 180 165 167 171 175
15 15 19 22 24 26 26 25 25 25 24 23 22 23 27 33 37 39 38 34 32 37 42 47 65 91 100 113 125 127 134 149 178 203 195 189 185 169 162 160 159 162
18 19 21 25 27 28 28 27 27 28 29 30 29 31 35 40 42 41 39 36 32 33 38 43 49 60 77 93 101 103 111 107 90 115 138 109 105 142 160 161 156 151
20 21 22 25 28 30 30 31 31 32 34 35 36 38 39 42 45 45 42 43 45 45 46 47 48 52 63 79 86 79 70 67 69 79 89 87 92 104 120 144 154 137
23 24 26 26 28 31 33 32 32 34 36 38 39 42 43 43 47 49 47 48 52 54 54 53 52 54 60 67 68 62 61 70 81 83 83 83 79 74 83 106 122 119
24 27 29 28 29 33 34 33 32 34 38 40 42 45 45 45 46 47 47 49 53 55 56 56 54 54 57 61 62 61 66 81 88 82 75 73 71 68 76 90 99 110
27 30 32 33 34 35 35 33 34 38 41 44 47 49 49 47 47 48 47 48 51 54 56 57 56 55 57 62 68 73 81 90 92 86 77 74 75 75 77 81 87 96
31 32 33 36 38 38 38 37 37 41 44 47 50 52 52 51 51 50 49 48 50 54 56 57 58 57 58 59 65 74 85 95 97 92 84 80 80 81 80 78 78 80
35 36 36 39 40 40 41 41 41 45 48 50 53 55 56 54 53 53 52 50 50 54 57 58 59 59 58 57 59 67 78 87 91 90 87 84 82 81 78 75 73 72